Starlink 30570

operational
NORAD ID: 58095 Int'l Des: 2023-160 Owner: SPXS Country: US Constellation: starlink
LEOCIRCULAR

About Starlink 30570

Description loading...

Live Position

Loading 3D Globe...

Upcoming Passes

Altitude History

Altitude vs Time

uPlot chart will show altitude changes over time

Two-Line Element Set

1 58095U 23160W 25260.45678976 -.00000163 00000-0 30140-5 0 9990
2 58095 43.0027 301.1700 0001615 267.0831 92.9826 15.02535569106865
Epoch: Sep 17, 2025 • Age: 22 hours

Current Status

Altitude 558.5 km
Velocity 7.59 km/s
Sub-Earth Point 15.28°N, 174.48°E
Launch Date Oct 18, 2023
Age 1.9 years
Type internet

Technical Details

Classification Payload
Mass 730.00 kg
Dry Mass 700.00 kg
Total Mass 730.00 kg
Length 0.30 m
Diameter 4.10 m
Span 29.00 m
Shape Box + pan
Manufacturer SPXS
Bus Type Starlink V2M
Phase Status In Orbit
Owner/State SPXS/US

Large Constellations

Loading constellations...